{"data":{"norad_id":55407,"epoch":"2026-05-25T04:47:12.214752Z","epoch_age_seconds":51140,"freshness":"FRESH","line1":"1 55407U 23014S   26145.19944693  .00000467  00000+0  46925-4 0  9990","line2":"2 55407  69.9994 231.6330 0003437 269.7357  90.3408 14.98332672183510","mean_motion":14.98332672,"eccentricity":0.0003437,"inclination_deg":69.9994,"raan_deg":231.633,"arg_perigee_deg":269.7357,"mean_anomaly_deg":90.3408,"bstar":4.6925e-5,"rev_number":18351,"period_min":96.106827736584,"perigee_km":569.65884956046,"apogee_km":574.43640647376,"semimajor_km":6950.1846280171,"source":"CELESTRAK","updated_at":"2026-05-25T13:38:17.796185Z"}}